• In Czech Republic
  • List of Countries
  • For 7 days
  • Water Temperature
  • Satellite Maps
  • Weather Map
  • Weather Widgets
  • user-avatar
    Login

    Hourly Weather Des Moines

    Today, 16 December, Saturday

    Time Temperature Precipitation Wind Pressure Humidity
    00:00 +1°C° 0 mm 5 mps 733 mmHg 51%
    01:00 +1°C° 0 mm 5 mps 733 mmHg 52%
    02:00 +1°C° 0 mm 5 mps 733 mmHg 53%
    03:00 +1°C° 0 mm 5 mps 733 mmHg 54%
    04:00 +1°C° 0 mm 4 mps 733 mmHg 56%
    05:00 0°C° 0 mm 4 mps 733 mmHg 58%
    06:00 0°C° 0 mm 4 mps 733 mmHg 60%
    07:00 +1°C° 0 mm 4 mps 733 mmHg 59%
    08:00 +1°C° 0 mm 4 mps 733 mmHg 59%
    09:00 +2°C° 0 mm 3 mps 734 mmHg 58%
    10:00 +4°C° 0 mm 3 mps 734 mmHg 52%
    11:00 +7°C° 0 mm 3 mps 734 mmHg 46%
    12:00 +9°C° 0 mm 3 mps 735 mmHg 40%
    13:00 +9°C° 0 mm 3 mps 735 mmHg 39%
    14:00 +10°C° 0 mm 2 mps 735 mmHg 37%
    15:00 +10°C° 0 mm 2 mps 735 mmHg 35%
    16:00 +9°C° 0 mm 2 mps 736 mmHg 40%
    17:00 +8°C° 0 mm 1 mps 736 mmHg 44%
    18:00 +7°C° 0 mm 1 mps 737 mmHg 48%
    19:00 +6°C° 0 mm 1 mps 737 mmHg 50%
    20:00 +5°C° 0 mm 1 mps 737 mmHg 53%
    21:00 +5°C° 0 mm 1 mps 738 mmHg 55%
    22:00 +4°C° 0 mm 1 mps 738 mmHg 57%
    23:00 +3°C° 0 mm 2 mps 738 mmHg 59%

    Tomorrow, 17 December, Sunday

    Time Temperature Precipitation Wind Pressure Humidity
    00:00 +2°C° 0 mm 2 mps 738 mmHg 61%
    01:00 +2°C° 0 mm 2 mps 738 mmHg 63%
    02:00 +2°C° 0 mm 2 mps 738 mmHg 65%
    03:00 +1°C° 0 mm 2 mps 738 mmHg 66%
    04:00 +1°C° 0 mm 2 mps 738 mmHg 69%
    05:00 +1°C° 0 mm 2 mps 738 mmHg 71%
    06:00 -1°C° 0 mm 2 mps 738 mmHg 73%
    07:00 +1°C° 0 mm 2 mps 739 mmHg 73%
    08:00 +1°C° 0 mm 2 mps 739 mmHg 73%
    09:00 +1°C° 0 mm 2 mps 739 mmHg 73%
    10:00 +2°C° 0 mm 2 mps 739 mmHg 68%
    11:00 +3°C° 0 mm 2 mps 739 mmHg 63%
    12:00 +4°C° 0 mm 2 mps 739 mmHg 59%
    13:00 +5°C° 0 mm 2 mps 739 mmHg 57%
    14:00 +5°C° 0 mm 2 mps 739 mmHg 56%
    15:00 +7°C° 0 mm 1 mps 739 mmHg 54%
    16:00 +5°C° 0 mm 2 mps 739 mmHg 59%
    17:00 +3°C° 0 mm 2 mps 739 mmHg 64%
    18:00 +2°C° 0 mm 2 mps 739 mmHg 69%
    19:00 +3°C° 0 mm 1 mps 739 mmHg 72%
    20:00 +2°C° 0 mm 1 mps 740 mmHg 75%
    21:00 +2°C° 0 mm 1 mps 740 mmHg 78%
    22:00 +1°C° 0 mm 1 mps 740 mmHg 79%
    23:00 0°C° 0 mm 0 mps 740 mmHg 80%

    Day after tomorrow, 18 December, Monday

    Time Temperature Precipitation Wind Pressure Humidity
    00:00 0°C° 0 mm 0 mps 740 mmHg 82%
    01:00 0°C° 0 mm 0 mps 740 mmHg 82%
    02:00 0°C° 0 mm 0 mps 740 mmHg 83%
    03:00 0°C° 0 mm 0 mps 739 mmHg 84%
    04:00 +1°C° 0 mm 1 mps 739 mmHg 84%
    05:00 0°C° 0 mm 1 mps 739 mmHg 84%
    06:00 0°C° 0 mm 1 mps 739 mmHg 84%
    07:00 -1°C° 0 mm 2 mps 739 mmHg 80%
    08:00 +1°C° 0 mm 2 mps 739 mmHg 77%
    09:00 0°C° 0 mm 3 mps 738 mmHg 73%
    10:00 +1°C° 0 mm 4 mps 738 mmHg 66%
    11:00 +3°C° 0 mm 5 mps 737 mmHg 58%
    12:00 +5°C° 0 mm 6 mps 737 mmHg 51%
    13:00 +7°C° 0 mm 6 mps 736 mmHg 49%
    14:00 +8°C° 0 mm 6 mps 735 mmHg 46%
    15:00 +9°C° 0 mm 7 mps 735 mmHg 44%
    16:00 +8°C° 0 mm 6 mps 735 mmHg 47%
    17:00 +7°C° 0 mm 5 mps 735 mmHg 50%
    18:00 +5°C° 0 mm 4 mps 735 mmHg 54%
    19:00 +5°C° 0 mm 5 mps 735 mmHg 54%
    20:00 +5°C° 0 mm 5 mps 735 mmHg 54%
    21:00 +5°C° 0 mm 5 mps 735 mmHg 55%
    22:00 +5°C° 0 mm 5 mps 735 mmHg 55%
    23:00 +5°C° 0 mm 5 mps 736 mmHg 55%

    19 December, Tuesday

    Time Temperature Precipitation Wind Pressure Humidity
    00:00 +5°C° 0 mm 5 mps 736 mmHg 56%
    01:00 +5°C° 0 mm 5 mps 736 mmHg 55%
    02:00 +3°C° 0 mm 5 mps 737 mmHg 55%
    03:00 +3°C° 0 mm 5 mps 737 mmHg 55%
    04:00 +3°C° 0 mm 4 mps 738 mmHg 59%
    05:00 +1°C° 0 mm 4 mps 738 mmHg 64%
    06:00 +2°C° 0 mm 3 mps 739 mmHg 69%
    07:00 +1°C° 0 mm 4 mps 740 mmHg 65%
    08:00 +1°C° 0 mm 4 mps 740 mmHg 60%
    09:00 +1°C° 0 mm 5 mps 741 mmHg 56%
    10:00 +2°C° 0 mm 6 mps 741 mmHg 46%
    11:00 +4°C° 0 mm 7 mps 741 mmHg 36%
    12:00 +5°C° 0 mm 8 mps 741 mmHg 26%
    13:00 +6°C° 0 mm 8 mps 741 mmHg 24%
    14:00 +6°C° 0 mm 8 mps 741 mmHg 21%
    15:00 +6°C° 0 mm 8 mps 741 mmHg 19%
    16:00 +5°C° 0 mm 7 mps 741 mmHg 22%
    17:00 +5°C° 0 mm 5 mps 742 mmHg 25%
    18:00 +3°C° 0 mm 4 mps 742 mmHg 27%
    19:00 +3°C° 0 mm 4 mps 743 mmHg 30%
    20:00 +2°C° 0 mm 3 mps 743 mmHg 32%
    21:00 +1°C° 0 mm 3 mps 743 mmHg 35%
    22:00 +1°C° 0 mm 3 mps 744 mmHg 37%
    23:00 0°C° 0 mm 3 mps 744 mmHg 39%

    20 December, Wednesday

    Time Temperature Precipitation Wind Pressure Humidity
    00:00 +1°C° 0 mm 2 mps 744 mmHg 40%
    01:00 -1°C° 0 mm 2 mps 744 mmHg 41%
    02:00 +1°C° 0 mm 1 mps 744 mmHg 42%
    03:00 -1°C° 0 mm 0 mps 744 mmHg 43%
    04:00 +1°C° 0 mm 1 mps 743 mmHg 43%
    05:00 +1°C° 0 mm 1 mps 743 mmHg 43%
    06:00 -1°C° 0 mm 2 mps 743 mmHg 42%
    07:00 -1°C° 0 mm 3 mps 743 mmHg 41%
    08:00 -1°C° 0 mm 4 mps 742 mmHg 40%
    09:00 -1°C° 0 mm 5 mps 742 mmHg 38%
    10:00 +2°C° 0 mm 6 mps 741 mmHg 35%
    11:00 +4°C° 0 mm 7 mps 740 mmHg 32%
    12:00 +6°C° 0 mm 8 mps 738 mmHg 28%
    13:00 +7°C° 0 mm 8 mps 737 mmHg 29%
    14:00 +9°C° 0 mm 7 mps 736 mmHg 29%
    15:00 +10°C° 0 mm 7 mps 735 mmHg 29%
    16:00 +8°C° 0 mm 6 mps 734 mmHg 33%
    17:00 +7°C° 0 mm 6 mps 734 mmHg 37%
    18:00 +6°C° 0 mm 5 mps 734 mmHg 41%
    19:00 +6°C° 0 mm 5 mps 733 mmHg 46%
    20:00 +6°C° 0 mm 5 mps 733 mmHg 51%
    21:00 +5°C° 0 mm 6 mps 732 mmHg 56%
    22:00 +7°C° 0 mm 6 mps 732 mmHg 61%
    23:00 +7°C° 0 mm 6 mps 731 mmHg 65%

    21 December, Thursday

    Time Temperature Precipitation Wind Pressure Humidity
    00:00 +8°C° 0 mm 7 mps 731 mmHg 70%
    01:00 +7°C° 0 mm 6 mps 731 mmHg 74%
    02:00 +7°C° 0 mm 6 mps 731 mmHg 77%
    03:00 +7°C° 0 mm 5 mps 731 mmHg 81%
    04:00 +7°C° 0 mm 5 mps 731 mmHg 83%
    05:00 +7°C° 0 mm 4 mps 732 mmHg 85%
    06:00 +7°C° 0 mm 4 mps 732 mmHg 88%
    07:00 +3°C° 0.1 mm 6 mps 733 mmHg 82%
    08:00 0°C° 0.1 mm 7 mps 734 mmHg 76%
    09:00 -4°C° 0.1 mm 8 mps 735 mmHg 71%
    10:00 -4°C° 0.1 mm 9 mps 735 mmHg 71%
    11:00 -5°C° 0.1 mm 9 mps 736 mmHg 70%
    12:00 -6°C° 0.1 mm 9 mps 737 mmHg 70%
    13:00 -8°C° 0.3 mm 9 mps 738 mmHg 72%
    14:00 -9°C° 0.3 mm 9 mps 739 mmHg 75%
    15:00 -10°C° 0.3 mm 9 mps 739 mmHg 77%
    16:00 -10°C° 0.2 mm 9 mps 741 mmHg 77%
    17:00 -11°C° 0.2 mm 9 mps 742 mmHg 77%
    18:00 -12°C° 0.2 mm 8 mps 743 mmHg 77%
    19:00 -12°C° 0.1 mm 8 mps 744 mmHg 73%
    20:00 -12°C° 0.1 mm 8 mps 745 mmHg 69%
    21:00 -13°C° 0.1 mm 8 mps 745 mmHg 65%
    22:00 -13°C° 0 mm 8 mps 746 mmHg 63%
    23:00 -14°C° 0 mm 7 mps 747 mmHg 61%
    Show more